Terminal Aerodrome Forecast
Issued by NWS

Home | Current Version | Previous Version | Text Only | Print | Product List | Glossary On
Versions: 1 2 3 4 5 6 7 8 9 10 11 12
653
FTUS46 KMTR 212328
TAFSJC
TAF
KSJC 212328Z 2200/2224 26007KT P6SM FEW020 SCT140 OVC200
     FM220200 16005KT P6SM FEW020 OVC100
     FM220400 15010KT P6SM FEW020 SCT035 OVC080
     FM220900 14010KT P6SM BKN018 OVC060 PROB30 2209/2213 P6SM -RA
     FM221300 14008KT P6SM BKN020 OVC060 PROB30 2213/2217 P6SM -RA
     FM222100 VRB03KT P6SM OVC050=

USA.gov is the U.S. government's official web portal to all federal, state and local government web resources and services.